COSMOS 2251 DEB, 34972

Orbit data source: Space-Track

COSMOS 2251 DEB, 34972 is space debris in LEO originally from a launch on Wed, 16 Jun 1993 UTC launched from the Plesetsk Missile And Space Complex (PKMTR). The debris from Iridium 33, an American commercial communications satellite, has been tracked extensively since its accidental collision with the defunct Russian satellite Cosmos 2251 in 2009. This event, occurring at high speed in low Earth orbit (LEO), generated thousands of pieces of space debris, significantly increasing the risk of further collisions. The Iridium 33 debris cloud has impacted space traffic management and orbital debris mitigation strategies, making it a subject of ongoing study in space situational awareness.

Loading next visibility...
Identifier
34972, 1993-036AFB
Orbit
LEO
Country
Flag of CISCIS
Related business
Manufacturer
Unknown
Mission
Spacecraft
Bus & Motor
Unknown
Mass
Unknown
Launch date (UTC)
1993-06-16 (33 years ago)
Launch vehicle
Unknown
Launch site
Plesetsk Missile And Space Complex (PKMTR)
Object type
Payload
Rocket body
Debris
Shape & HBR
Unknown shape, 0.1 m
Radar Cross Section
Small (<0.1 m²)

Expand to show TLE details & history
Last TLE update: 16 hours ago

TLE from 16 hours ago
0 COSMOS 2251 DEB
1 34972U 93036AFB 26034.22319683  .00012503  00000-0  18800-2 0  9995
2 34972  73.9886 307.2361 0032116  90.1890  65.6393 14.74179569884230
Epoch: 2026-02-03T05:21Z
TLE epoch observation values (Epoch: 2026-02-03T05:21:24.206Z)
Latitude
22.88298°
Longitude
-93.44064°
Altitude
641.013 km
Speed
7.545 km/s
True Right ascension
08h 01m 16s
True Declination
22° 45' 29"
Sunlit
Object was in full shadow at epoch
Visualization orbit readout
Latitude
Unknown
Longitude
Unknown
Altitude
Unknown
Speed
Unknown
Apparent Right ascension
Unknown
Apparent Declination
Unknown
Sunlit
N/A
Visualization observer readout
Local Sidereal Time
22:49:31
Azimuth
Unknown
Elevation
Unknown
Doppler factor
Unknown
Orbital elements
Apogee altitude
667.899 km
Perigee altitude
622.786 km
Semi-major axis
7,023.48 km
Eccentricity
0.00321
Inclination
73.9886°
RAAN
307.2361°
Arg. of periapsis
90.189°
True anomaly
65.97511°
Mean anomaly
65.6393°
Eccentric anomaly
65.80715°
Mean motion
3.68735 °/min
Orbital period
97.63 mins
BSTAR
0.00188
Loading maneuver chart data...
Computing Atmospheric mass density...

Documentation

Showing up to 5 results
|